Weather History for Wright-Patt AFB, OH

Change the Weather History Date:

Sunday, March 9, 2014

  Actual Average Record
Temperature  
Mean Temperature 36 °F -  
Max Temperature 44 °F 43 °F 65 °F (2007)
Min Temperature 28 °F 24 °F 1 °F (2008)
Degree Days  
Heating Degree Days 29    
Moisture  
Dew Point 25 °F    
Average Humidity 73    
Maximum Humidity 100    
Minimum Humidity 41    
Precipitation  
Precipitation 0.00 in - - ()
Sea Level Pressure  
Sea Level Pressure 30.18 in    
Wind  
Wind Speed 7 mph (WNW)    
Max Wind Speed 16 mph    
Max Gust Speed 20 mph    
Visibility 9 miles    
Events      
Averages and records for this station are not official NWS values.
T = Trace of Precipitation, MM = Missing Value Source: NWS Daily Summary

Daily Weather History Graph

Daily Weather History Graph

Search for Another Location

Airport:

Trip Planner

Search our weather history database for the weather conditions in past years. The results will help you decide how hot, cold, wet, or windy it might be!

Date:

Astronomy

Mar. 09, 2014 Rise Set
Actual Time 7:57 AM EDT 7:36 PM EDT
Civil Twilight 7:30 AM EDT 8:03 PM EDT
Nautical Twilight 6:58 AM EDT 8:35 PM EDT
Astronomical Twilight 6:27 AM EDT 9:06 PM EDT
Moon 1:29 PM EDT (3/9) 3:21 AM EDT (3/9)
Length of Visible Light 12h 33m
Length of Day
11h 39m
First Quarter, 61% of the Moon is Illuminated
Mar 9
First Quarter
Mar 16
Full
Mar 23
Last Quarter
Mar 30
New
Apr 7
First Quarter

Hourly Weather History & Observations

Time (EDT) Temp. Windchill Dew Point Humidity Pressure Visibility Wind Dir Wind Speed Gust Speed Precip Events Conditions
12:08 AM 32.0 °F 24.8 °F 32.0 °F 100% 30.16 in 3.0 mi North 8.1 mph - N/A   Light Drizzle
12:46 AM 32.0 °F 25.6 °F 32.0 °F 100% 30.17 in 4.0 mi NNW 6.9 mph - N/A   Light Drizzle
12:58 AM 32.0 °F 26.4 °F 30.2 °F 93% 30.19 in 6.0 mi NNW 5.8 mph - 0.00 in   Light Drizzle
1:27 AM 32.0 °F 26.4 °F 30.2 °F 93% 30.17 in 5.0 mi NNW 5.8 mph - N/A   Light Drizzle
1:32 AM 32.0 °F 26.4 °F 30.2 °F 93% 30.18 in 6.0 mi NNW 5.8 mph - N/A   Overcast
1:43 AM 32.0 °F 26.4 °F 30.2 °F 93% 30.18 in 7.0 mi NNW 5.8 mph - N/A   Overcast
1:58 AM 31.8 °F 24.6 °F 29.5 °F 91% 30.21 in 8.0 mi NW 8.1 mph - 0.00 in   Overcast
3:18 AM 32.0 °F 24.8 °F 28.4 °F 87% 30.18 in 9.0 mi NNW 8.1 mph - N/A   Overcast
3:38 AM 32.0 °F 26.4 °F 28.4 °F 87% 30.18 in 9.0 mi NW 5.8 mph - N/A   Overcast
3:58 AM 32.0 °F 24.8 °F 26.6 °F 80% 30.21 in 10.0 mi NW 8.1 mph - N/A   Overcast
4:48 AM 32.0 °F 25.6 °F 26.6 °F 80% 30.18 in 10.0 mi North 6.9 mph - N/A   Overcast
4:58 AM 31.6 °F 25.1 °F 25.9 °F 79% 30.22 in 10.0 mi North 6.9 mph - N/A   Overcast
5:08 AM 32.0 °F 24.8 °F 24.8 °F 75% 30.19 in 10.0 mi North 8.1 mph - N/A   Overcast
5:38 AM 32.0 °F 26.4 °F 26.6 °F 80% 30.19 in 10.0 mi NW 5.8 mph - N/A   Overcast
5:48 AM 32.0 °F 27.5 °F 26.6 °F 80% 30.19 in 10.0 mi NW 4.6 mph - N/A   Mostly Cloudy
5:58 AM 32.0 °F 25.6 °F 26.6 °F 80% 30.23 in 10.0 mi WNW 6.9 mph - N/A   Mostly Cloudy
6:58 AM 30.4 °F 23.6 °F 25.9 °F 83% 30.25 in 10.0 mi NW 6.9 mph - N/A   Overcast
7:28 AM 30.2 °F 23.4 °F 24.8 °F 80% 30.23 in 10.0 mi NW 6.9 mph - N/A   Overcast
7:37 AM 30.2 °F 21.9 °F 24.8 °F 80% 30.23 in 10.0 mi NW 9.2 mph - N/A   Overcast
7:58 AM 28.8 °F 21.7 °F 24.1 °F 83% 30.27 in 6.0 mi NNW 6.9 mph - N/A   Mostly Cloudy
8:08 AM 28.4 °F 22.2 °F 23.0 °F 80% 30.24 in 6.0 mi NW 5.8 mph - N/A   Scattered Clouds
8:58 AM 28.0 °F 24.2 °F 23.2 °F 82% 30.30 in 7.0 mi WNW 3.5 mph - N/A   Mostly Cloudy
9:08 AM 28.4 °F 23.3 °F 23.0 °F 80% 30.26 in 10.0 mi NW 4.6 mph - N/A   Mostly Cloudy
9:58 AM 30.2 °F - 23.0 °F 75% 30.30 in 10.0 mi Variable 2.3 mph - N/A   Scattered Clouds
10:58 AM 32.2 °F 27.7 °F 23.9 °F 72% 30.30 in 10.0 mi North 4.6 mph - N/A   Partly Cloudy
11:58 AM 34.9 °F 28.3 °F 22.8 °F 61% 30.27 in 10.0 mi SSW 8.1 mph - N/A   Scattered Clouds
12:58 PM 37.4 °F 31.4 °F 21.2 °F 52% 30.25 in 10.0 mi SW 8.1 mph - N/A   Clear
1:58 PM 40.1 °F 36.9 °F 22.3 °F 49% 30.21 in 10.0 mi Variable 4.6 mph - N/A   Clear
2:58 PM 43.2 °F 37.4 °F 22.5 °F 44% 30.17 in 10.0 mi SW 10.4 mph - N/A   Clear
3:58 PM 43.7 °F 36.9 °F 21.4 °F 41% 30.15 in 10.0 mi WSW 13.8 mph 19.6 mph N/A   Clear
4:58 PM 44.6 °F 37.4 °F 22.8 °F 42% 30.11 in 10.0 mi SSW 16.1 mph 19.6 mph N/A   Clear
5:58 PM 44.4 °F 38.6 °F 23.4 °F 43% 30.09 in 10.0 mi SW 11.5 mph - N/A   Clear
6:58 PM 43.5 °F 39.4 °F 23.4 °F 45% 30.09 in 10.0 mi SW 6.9 mph - N/A   Clear
7:58 PM 39.6 °F 35.4 °F 21.0 °F 48% 30.09 in 10.0 mi WSW 5.8 mph - N/A   Clear
8:58 PM 36.7 °F 32.9 °F 21.4 °F 54% 30.08 in 10.0 mi SW 4.6 mph - N/A   Overcast
9:58 PM 34.9 °F 29.9 °F 22.8 °F 61% 30.05 in 10.0 mi SSW 5.8 mph - N/A   Mostly Cloudy
10:58 PM 34.9 °F 27.7 °F 22.8 °F 61% 30.04 in 10.0 mi SSW 9.2 mph - N/A   Scattered Clouds
11:58 PM 35.1 °F 30.1 °F 23.4 °F 62% 30.03 in 10.0 mi SSW 5.8 mph - N/A   Scattered Clouds
12:58 AM 33.8 °F 27.0 °F 22.6 °F 64% 30.01 in 10.0 mi SSW 8.1 mph - N/A   Clear